CW3786 Weather Reports


Display with metric or nautical units.
time (UTC)temp
F
wind
direction
speed
MPH
gust
MPH
rain 1hr
in
rain 24hr
in
rain mn
in
humidity
%
barometer
mb
20260906124549 65 275 0.0 0.0 0.00 0.00 0.02 74 1005.2
20260906123046 69 275 0.0 0.0 0.00 0.00 0.01 64 1005.1
20260906121534 69 275 0.0 0.0 0.00 0.00 0.00 60 1004.8
20260906120047 70 275 0.0 0.0 0.00 0.00 0.00 56 1004.7
20260906114535 71 275 0.0 0.0 0.00 0.00 0.00 50 1004.2
20260906113011 71 275 0.0 0.0 0.00 0.00 0.00 38 1004.2
20260906111551 71 275 0.0 0.0 0.00 0.00 0.00 39 1004.2
20260906110032 71 275 0.0 0.0 0.00 0.00 0.00 38 1004.2
20260906104605 72 275 0.0 0.0 0.00 0.00 0.00 37 1004.2
20260906103013 72 275 0.0 0.0 0.00 0.00 0.00 35 1004.2
20260906101549 72 275 0.0 0.0 0.00 0.00 0.00 35 1004.2
20260906100014 72 275 0.0 0.0 0.00 0.00 0.00 35 1004.2
20260906094612 72 275 0.0 0.0 0.00 0.00 0.00 34 1004.2
20260906093046 72 275 0.0 0.0 0.00 0.00 0.00 34 1004.3
20260906091545 71 275 0.0 0.0 0.00 0.00 0.00 35 1004.4
20260906090021 70 275 0.0 0.0 0.00 0.00 0.00 38 1004.4
20260906084555 70 275 0.0 0.0 0.00 0.00 0.00 38 1004.4
20260906083052 70 275 0.0 0.0 0.00 0.00 0.00 37 1004.7
20260906081546 70 275 0.0 0.0 0.00 0.00 0.00 37 1004.7
20260906080033 70 275 0.0 0.0 0.00 0.00 0.00 38 1004.7
20260906074553 71 275 0.0 0.0 0.00 0.00 0.00 38 1004.7
20260906073042 71 275 0.0 0.0 0.00 0.00 0.00 35 1004.7
20260906071520 70 275 0.0 0.0 0.00 0.00 0.00 35 1004.7
20260906070054 70 275 0.0 0.0 0.00 0.00 0.03 38 1004.7
20260906064526 70 275 0.0 0.0 0.00 0.00 0.03 39 1004.7
20260906063007 70 275 0.0 0.0 0.00 0.00 0.03 39 1004.7
20260906061601 71 275 0.0 0.0 0.00 0.00 0.03 39 1004.7
20260906061506 71 275 0.0 0.0 0.00 0.00 0.03 39 1004.8
20260906060037 72 275 0.0 0.0 0.00 0.00 0.03 39 1004.8
20260906054504 73 275 0.0 0.0 0.00 0.00 0.03 39 1004.8
20260906053043 72 274 0.0 0.0 0.00 0.00 0.03 39 1004.8
20260906051517 72 276 0.0 0.0 0.00 0.00 0.03 38 1005.0
20260906050109 72 276 0.0 0.0 0.00 0.00 0.03 38 1005.0
20260906044528 71 276 0.0 0.0 0.00 0.00 0.03 41 1004.9
20260906043020 71 276 0.0 0.0 0.00 0.00 0.03 43 1004.9
20260906041508 71 276 0.0 0.0 0.00 0.00 0.03 48 1004.8
20260906040135 71 276 0.0 0.0 0.00 0.00 0.03 49 1004.8
20260906040004 71 276 0.0 0.0 0.00 0.00 0.03 49 1004.8
20260906034527 71 277 0.0 0.0 0.00 0.00 0.03 47 1004.8
20260906033005 72 277 0.0 0.0 0.00 0.00 0.03 48 1004.4
20260906031601 72 277 0.0 0.0 0.00 0.00 0.03 50 1004.4
20260906030034 72 276 0.0 0.0 0.00 0.00 0.03 55 1004.3
20260906024523 73 276 0.0 0.0 0.00 0.00 0.03 57 1004.2
20260906023003 73 276 0.0 0.0 0.00 0.00 0.03 53 1004.2
20260906021557 73 276 0.0 0.0 0.00 0.00 0.03 59 1004.2
20260906020030 73 275 0.0 0.0 0.00 0.00 0.03 65 1004.3
20260906014557 73 277 1.0 0.0 0.00 0.00 0.03 69 1004.3
20260906013035 74 261 1.0 0.0 0.00 0.00 0.03 68 1004.3
20260906011551 76 246 2.0 0.0 0.00 0.00 0.03 63 1004.3
20260906010035 78 252 1.0 0.0 0.00 0.00 0.03 54 1004.2
20260906004519 79 228 0.0 0.0 0.00 0.00 0.03 48 1004.2
20260906003045 80 275 0.0 0.0 0.00 0.00 0.03 43 1004.2
20260906001513 80 277 1.0 0.0 0.00 0.00 0.03 41 1004.2
20260906000051 81 278 2.0 0.0 0.00 0.00 0.03 42 1004.2
20260905234522 84 277 1.0 0.0 0.00 0.00 0.03 35 1004.2
20260905233014 86 171 0.0 0.0 0.00 0.00 0.03 33 1004.2
20260905231552 85 171 0.0 0.0 0.00 0.00 0.03 28 1004.2
20260905230031 85 145 0.0 0.0 0.00 0.00 0.03 33 1004.3
20260905224524 85 133 0.0 0.0 0.00 0.00 0.03 36 1004.5
20260905223052 85 254 0.0 0.0 0.00 0.00 0.03 35 1004.5
20260905221542 85 259 1.0 0.0 0.00 0.00 0.03 39 1004.7
20260905220034 85 311 0.0 0.0 0.00 0.00 0.03 44 1004.8
20260905214530 84 269 2.0 0.0 0.00 0.00 0.03 44 1004.8
20260905213105 84 306 2.0 0.0 0.00 0.00 0.03 46 1005.2
20260905211544 84 294 0.0 0.0 0.00 0.00 0.03 49 1005.3
20260905210018 84 300 1.0 0.0 0.00 0.00 0.03 47 1005.4
20260905204511 84 317 1.0 0.0 0.00 0.00 0.03 44 1005.5
20260905203050 84 313 0.0 0.0 0.00 0.00 0.03 50 1005.5
20260905201542 83 286 0.0 0.0 0.00 0.00 0.03 48 1005.6
20260905200057 83 306 0.0 0.0 0.00 0.00 0.03 51 1005.8
20260905194542 81 292 0.0 0.0 0.00 0.00 0.03 48 1005.9
20260905193024 80 288 1.0 0.0 0.00 0.00 0.03 51 1006.3
20260905191504 79 317 1.0 0.0 0.00 0.00 0.03 55 1006.4
20260905190100 76 44 0.0 0.0 0.00 0.00 0.03 58 1006.4
20260905190004 76 44 0.0 0.0 0.00 0.00 0.03 58 1006.5
20260905184542 73 285 1.0 0.0 0.00 0.00 0.03 64 1006.5
20260905183023 71 49 1.0 0.0 0.00 0.00 0.03 74 1006.7
20260905181558 68 76 1.0 0.0 0.00 0.00 0.03 66 1006.7
20260905181501 68 76 1.0 0.0 0.00 0.00 0.03 64 1006.8
20260905180044 69 93 1.0 0.0 0.00 0.00 0.03 69 1006.8
20260905174523 74 83 1.0 0.0 0.00 0.00 0.03 67 1006.5
20260905173024 80 71 1.0 0.0 0.00 0.00 0.03 46 1006.5
20260905171526 78 80 2.0 0.0 0.00 0.00 0.00 50 1006.5
20260905170050 76 84 0.0 0.0 0.00 0.00 0.00 58 1006.5
20260905164512 74 82 1.0 0.0 0.00 0.00 0.00 65 1006.4
20260905163047 72 323 0.0 0.0 0.00 0.00 0.00 71 1006.4
20260905161537 69 323 0.0 0.0 0.00 0.00 0.00 79 1006.4
20260905160037 69 326 0.0 0.0 0.00 0.00 0.00 85 1006.4
20260905154556 68 314 0.0 0.0 0.00 0.00 0.00 91 1006.3
20260905153044 67 314 0.0 0.0 0.00 0.00 0.00 95 1006.2
20260905151544 66 314 0.0 0.0 0.00 0.00 0.00 96 1005.9
20260905150021 65 269 0.0 0.0 0.00 0.00 0.00 96 1005.9
20260905144551 64 265 0.0 0.0 0.00 0.00 0.00 96 1005.9
20260905143043 62 265 0.0 0.0 0.00 0.00 0.00 96 1005.9
20260905141523 62 265 0.0 0.0 0.00 0.00 0.00 95 1005.4
20260905140004 61 265 0.0 0.0 0.00 0.00 0.00 95 1005.2
20260905134527 61 265 0.0 0.0 0.00 0.00 0.00 95 1005.2
20260905133052 61 265 0.0 0.0 0.00 0.00 0.00 95 1005.2
20260905131537 61 265 0.0 0.0 0.00 0.00 0.00 95 1005.1
20260905130018 61 265 0.0 0.0 0.00 0.00 0.00 95 1005.1